Weather observations for the past three days for
Park Rapids Municipal Airport
Imperial (Metric)
Date Time (cdt) Wind (mph) Vis. (mi.) Weather Sky Cond. Temperature (ºF) Relative Humidity Wind Chill (°F) Heat Index (°F) Pressure Precipitation (in)
Air Dwpt 6 hour altimeter (in) sea level (mb) 1 hr 3 hr 6 hr
Max. Min.
21 17:53 W 5 10.00 Fair CLR 75.9 66.9 74% 77 30.1 1018.9
21 16:53 Calm 9.00 Partly Cloudy FEW075 SCT090 71.1 68 90% 30.12 1019.7 0.18
21 15:53 SW 15 G 20 5.00 Thunderstorm Light Rain SCT028 OVC036 70 64.9 84% 30.14 1020.4 0.04 0.04
21 14:53 E 8 10.00 Thunderstorm in Vicinity BKN034 OVC055 82.9 66.9 59% 86 30.12 1019.3
21 13:53 Vrbl 5 10.00 A Few Clouds FEW035 FEW041 82 64.9 56% 84 30.13 1019.8
21 12:53 E 3 10.00 Overcast BKN026 OVC034 79 66.9 79 63 67% 81 30.15 1020.5
21 11:53 S 5 10.00 Overcast BKN023 OVC037 78.1 68 71% 80 30.16 1020.9
21 10:53 SW 5 10.00 Fair CLR 75.9 66.9 74% 77 30.16 1020.8
21 09:53 Vrbl 3 10.00 Fair CLR 72 66.9 84% 30.16 1020.8
21 08:53 Calm 6.00 Fog/Mist CLR 69.1 66.9 93% 30.16 1021.1
21 07:53 Calm 4.00 Fog/Mist FEW034 66 64.9 96% 30.16 1021.2
21 06:53 Calm 0.25 Fog VV002 63 62.1 66 62.1 97% 30.16 1020.8
21 05:53 Calm 0.75 Fog/Mist VV003 63 62.1 97% 30.14 1020.2
21 04:53 Calm 4.00 Fog/Mist CLR 64 62.1 93% 30.14 1020.1
21 03:53 Calm 5.00 Fog/Mist CLR 64.9 63 93% 30.15 1020.2
21 02:53 Calm 5.00 Fog/Mist CLR 64.9 63 93% 30.15 1020.2
21 01:53 Calm 4.00 Fog/Mist CLR 64.9 63 93% 30.14 1020.0
21 00:53 NW 5 6.00 Fog/Mist CLR 66 64 77 64.9 93% 30.14 1019.9 0.05
20 23:53 Calm 7.00 Fair CLR 66.9 64 91% 30.13 1019.8
20 22:53 Calm 7.00 Mostly Cloudy BKN044 68 64.9 90% 30.13 1019.7
20 21:53 Calm 7.00 A Few Clouds FEW100 70 64 82% 30.13 1019.7 0.05
20 20:53 Calm 8.00 Fair CLR 69.1 64.9 87% 30.12 1019.6 0.01
20 19:53 W 13 3.00 Thunderstorm Rain Fog/Mist FEW055 BKN080 OVC100 68 64.9 90% 30.11 1019.6 0.04
20 18:53 S 10 10.00 Thunderstorm in Vicinity FEW041 BKN070 BKN120 77 66 84 77 69% 79 30.11 1019.3
20 17:53 NE 9 10.00 Partly Cloudy SCT047 SCT060 82 64 55% 84 30.1 1018.7
20 16:53 N 7 10.00 A Few Clouds FEW043 FEW070 82.9 64 53% 84 30.09 1018.5
20 15:53 NW 8 10.00 Mostly Cloudy SCT045 SCT070 BKN110 82.9 64 53% 84 30.1 1018.6
20 14:53 NW 7 10.00 A Few Clouds FEW050 82 63 53% 83 30.1 1018.9
20 13:53 W 5 10.00 Fair CLR 84 64 51% 85 30.11 1019.1
20 12:53 Calm 10.00 A Few Clouds FEW048 82 62.1 82.9 63 51% 83 30.11 1019.1
20 11:53 Calm 10.00 Fair CLR 82.9 64 53% 84 30.11 1019.0
20 10:53 W 5 10.00 Fair CLR 81 64.9 58% 83 30.12 1019.2
20 09:53 Calm 10.00 Fair CLR 78.1 66 67% 80 30.11 1019.0
20 08:53 Calm 10.00 Fair CLR 73 66 79% 30.12 1019.2
20 07:53 Calm 8.00 Fair CLR 66.9 63 87% 30.12 1019.5
20 06:53 Calm 10.00 A Few Clouds FEW065 63 61 66.9 60.1 93% 30.1 1018.8
20 05:53 Calm 10.00 Mostly Cloudy BKN048 61 59 93% 30.09 1018.6
20 04:53 Calm 7.00 Fair CLR 62.1 61 96% 30.08 1018.1
20 03:53 Calm 7.00 Fair CLR 62.1 60.1 93% 30.07 1017.6
20 02:53 Calm 10.00 Fair CLR 63 61 93% 30.06 1017.6
20 01:53 S 3 10.00 Fair CLR 66 62.1 87% 30.07 1017.8
20 00:53 Calm 10.00 Fair CLR 66 62.1 81 64.9 87% 30.07 1017.9
19 23:53 Calm 10.00 Fair CLR 66.9 62.1 84% 30.07 1017.8
19 22:53 S 3 10.00 Fair CLR 69.1 62.1 78% 30.07 1017.6
19 21:53 SE 6 10.00 Fair CLR 73 61 66% 30.06 1017.6
19 20:53 Calm 10.00 Partly Cloudy SCT090 78.1 57.9 50% 79 30.05 1017.0
19 19:53 Calm 10.00 Fair CLR 79 59 50% 80 30.05 1017.1
19 18:53 SE 5 10.00 Mostly Cloudy SCT075 BKN090 81 54 84 80.1 39% 81 30.04 1016.8
19 17:53 Vrbl 5 10.00 A Few Clouds FEW065 82 54 38% 81 30.05 1017.1
19 16:53 Vrbl 3 10.00 Fair CLR 82 52 35% 81 30.05 1017.0
19 15:53 S 5 10.00 Fair CLR 81 55 41% 81 30.05 1017.3
19 14:53 Calm 10.00 A Few Clouds FEW065 81 55.9 42% 81 30.05 1017.2
19 13:53 SW 8 10.00 Partly Cloudy SCT065 81 57.9 45% 81 30.07 1017.7
19 12:53 Calm 10.00 Partly Cloudy SCT050 80.1 57 80.1 57.9 45% 80 30.08 1018.1
19 11:53 S 6 10.00 Fair CLR 78.1 57 48% 79 30.08 1018.3
19 10:53 Vrbl 6 10.00 Fair CLR 75.9 59 56% 78 30.08 1018.3
19 09:53 SW 3 10.00 Fair CLR 73 61 66% 30.09 1018.5
19 08:53 S 3 10.00 Fair CLR 66.9 59 76% 30.1 1019.1
19 07:53 SE 5 10.00 Fair CLR 61 57 87% 30.11 1019.3
19 06:53 SE 3 10.00 Fair CLR 57.9 55 63 55.9 90% 30.11 1019.3
19 05:53 SE 3 10.00 Fair CLR 55.9 54 93% 30.1 1019.0
19 04:53 Calm 10.00 Fair CLR 57 54 90% 30.09 1018.9
19 03:53 Calm 10.00 Fair CLR 57.9 54 87% 30.09 1018.7
19 02:53 SE 3 10.00 Fair CLR 59 55 87% 30.1 1019.0
19 01:53 Calm 10.00 Fair CLR 61 55 81% 30.11 1019.4
19 00:53 Calm 10.00 Fair CLR 63 55 75 63 76% 30.11 1019.4
18 23:53 Calm 10.00 Fair CLR 64 55.9 75% 30.12 1019.6
18 22:53 S 3 10.00 Fair CLR 64.9 55.9 73% 30.11 1019.4
18 21:53 S 3 10.00 Fair CLR 68 55 63% 30.12 1019.8
18 20:53 SW 5 10.00 Fair CLR 69.1 55.9 63% 30.11 1019.6
18 19:53 S 5 10.00 Fair CLR 73 55 53% 30.12 1019.9
18 18:53 SW 7 10.00 Fair CLR 75 53.1 78.1 73 46% 78 30.13 1020.4
Date Time (cdt) Wind (mph) Vis. (mi.) Weather Sky Cond. Air Dwpt Max. Min. Relative Humidity Wind Chill (°F) Heat Index (°F) altimeter (in) sea level (mb) 1 hr 3 hr 6 hr
6 hour
Temperature (ºF) Pressure Precipitation (in)